Volver al catálogo

METEOR 2-17 DEB

LostPO
NORAD 38544·DEBRIS·🇷🇺 Russia

Lanzado Jan 30, 1988 desde Plesetsk Cosmodrome

Loading…

Próximos Pases (próximas 24 horas)

TLE

ObsoletoSource: Space-Track

Época: Sep 25, 2024, 03:05 UTC

1 38544U 88005AX  24269.12867836  .00004283  00000-0  29787-2 0  9991
2 38544  82.5257  52.8618 0012958 353.4717   6.6280 13.98513843138289

Sigue METEOR 2-17 DEB en tiempo real con AllMySat

Download on the App Store